[[{"header":{"parameterUnit":"m.s-1","parameterCategory":1,"la1":30.2991,"la2":30.254,"lo1":-89.0895,"lo2":-89.0444,"dy":0.0017,"dx":0.0017,"nx":28,"ny":28,"refTime":"2023-08-04T21:00:00:Z","depth":0,"parameterNumber":2,"parameterNumberName":"U-component_of_WINDS"},"data":[0,0,0,0,0,0,0,0,0,0,0,0,0,0,0,0,0,0,0,0,0,0,0,0,0,0,0,0,0,0,0,0,0,0,0,0,0,0,0,0,0,0,0,0,0,0,0,0,0,0,0,0,0,0,0,0,0,0,2.2954,2.2955,0,2.3045,2.3046,2.3047,2.3007,2.3004,2.3002,2.3,2.3101,2.3105,2.311,0,0,0,0,0,0,0,0,0,0,0,0,0,2.275,2.2754,2.2953,2.2955,2.2956,2.3045,2.3046,2.3048,2.3007,2.3004,2.3002,2.2999,2.3099,2.3105,2.311,0,0,0,0,0,0,0,0,0,0,0,0,0,2.284,2.2756,2.2953,2.2946,2.2946,2.3045,2.3046,2.3048,2.3008,2.3004,2.3001,2.2998,2.3097,2.3104,2.3111,2.3224,0,0,2.3133,2.3136,0,0,0,0,0,0,0,0,2.2835,2.2848,2.2946,2.2947,2.2947,2.3011,2.3012,2.3107,2.3009,2.2985,2.3,2.2996,2.3074,2.3083,2.3108,2.3229,2.3233,2.3134,2.3138,2.3141,2.3143,0,0,0,0,0,0,0,2.2829,2.2844,2.299,2.2948,2.2948,2.2941,2.295,2.303,2.3048,2.2986,2.2984,2.2995,2.3074,2.3101,2.311,2.3234,2.3134,2.314,2.3144,2.3147,2.3455,2.3459,0,0,0,0,0,0,2.2822,2.2839,2.2987,2.2993,2.2881,2.2947,2.2957,2.2994,2.3046,2.3051,2.2998,2.2993,2.309,2.3101,2.3113,2.325,2.3141,2.3148,2.3152,2.3452,2.3456,2.346,0,0,0,0,0,0,2.2818,2.2835,2.2983,2.2915,2.2933,2.2954,2.2996,2.2998,2.3025,2.3055,2.3059,2.3022,2.3088,2.3103,2.3197,2.3253,2.3151,2.3158,2.3447,2.3453,2.3458,2.3525,0,0,0,0,0,0,2.2812,2.2834,2.2875,2.2916,2.2937,2.3064,2.2999,2.3002,2.3036,2.3031,2.3078,2.3083,2.3086,2.3186,2.3204,2.3261,2.3163,2.3442,2.345,2.3456,2.3518,2.3532,2.3545,0,0,0,0,0,2.2805,2.2892,2.2878,2.2896,2.2989,2.3067,2.3079,2.3079,2.3041,2.3084,2.3104,2.3082,2.3244,2.3196,2.3216,2.3276,2.3439,2.3447,2.3456,2.3512,2.3529,2.3544,0,0,0,0,0,0,2.2859,2.2897,2.2882,2.2984,2.3022,2.306,2.3114,2.3098,2.3149,2.3142,2.3142,2.3153,2.3251,2.3273,2.3219,2.3389,2.3336,2.3349,2.3372,2.3389,2.3402,2.3395,2.3169,0,0,0,0,0,2.2882,2.294,2.2971,2.3058,2.3078,2.3093,2.3127,2.3124,2.3164,2.3181,2.3207,2.325,2.331,2.335,2.3408,2.352,2.3532,2.3572,2.3585,2.3596,2.3608,2.3671,2.369,2.3489,2.3489,2.3489,0,0,2.2932,2.296,2.2997,2.307,2.3099,2.3162,2.3107,2.3175,2.3222,2.3192,2.3282,2.3303,2.335,2.3455,2.3502,2.3476,2.3666,2.3607,2.3615,2.3622,2.3682,2.3701,2.3718,2.3495,2.3494,2.3493,0,0,2.3055,2.3081,2.3157,2.3187,2.3232,2.3241,2.326,2.33,2.3312,2.3402,2.3381,2.3439,2.3543,2.3578,2.3609,2.3747,2.3729,2.3766,2.3836,2.3898,2.3914,2.3928,2.3979,2.3998,2.3777,2.3777,2.3777,0,2.3112,2.3203,2.3199,2.3269,2.3303,2.3276,2.3355,2.3386,2.3448,2.3473,2.3442,2.3573,2.3603,2.3716,2.375,2.3775,2.3799,2.3761,2.3912,2.3926,2.3939,2.3988,2.4007,2.3781,2.3781,2.378,2.378,0,2.3272,2.3336,2.3393,2.3451,2.3492,2.3566,2.3575,2.3617,2.361,2.3624,2.3717,2.3752,2.3817,2.3843,2.3838,2.3957,2.3939,2.391,2.3857,2.3963,2.4009,2.4027,2.3787,2.3786,2.3785,2.3784,0,0,2.3432,2.3487,2.3509,2.3536,2.3584,2.3634,2.3708,2.377,2.3807,2.3851,2.3915,2.4003,2.3977,2.4013,2.4012,2.4066,2.4175,2.4031,2.4032,2.4058,2.4311,2.4333,2.4355,2.4163,2.4167,2.4169,2.4307,0,2.356,2.3687,2.3687,2.3806,2.3866,2.3842,2.3907,2.3945,2.396,2.4015,2.4032,2.4096,2.4055,2.4077,2.413,2.4151,2.4226,2.4141,2.4226,2.4229,2.4216,2.4378,2.4403,2.4531,2.4325,2.4328,2.433,0,2.3726,2.3774,2.3899,2.3939,2.3965,2.4023,2.408,2.4132,2.4176,2.4183,2.4223,2.4214,2.4292,2.4235,2.4344,2.4286,2.4321,2.4337,2.4342,2.4351,2.4287,2.4394,2.4571,2.4592,2.4358,2.4356,2.4354,0,2.3833,2.3929,2.4016,2.404,2.4089,2.4131,2.4153,2.4193,2.423,2.4281,2.4306,2.4366,2.4399,2.4447,2.4455,2.4412,2.4566,2.4509,2.4577,2.4577,2.4611,2.4609,2.4798,2.4631,2.463,2.463,2.463,0,2.3977,2.4055,2.4065,2.4119,2.4207,2.4206,2.4293,2.4313,2.4348,2.4408,2.4391,2.4448,2.4454,2.4513,2.452,2.4611,2.4626,2.4636,2.4637,2.4638,2.4637,2.4662,2.4655,2.4635,2.4634,2.4633,2.4632,0,2.4112,2.4121,2.4216,2.4254,2.4265,2.4328,2.4362,2.4415,2.4428,2.4503,2.4521,2.4542,2.4611,2.4623,2.4705,2.471,2.4819,2.481,2.4804,2.4804,2.4871,2.4866,2.5085,2.5114,2.4925,2.4927,2.4929,0,2.4204,2.4263,2.4307,2.4345,2.4369,2.443,2.4468,2.447,2.4511,2.4565,2.4613,2.4679,2.4733,2.4844,2.4869,2.4932,2.4926,2.4998,2.4935,2.4935,2.4929,2.4926,2.4933,2.5011,2.5013,2.5014,2.5016,0,2.4367,2.4369,2.4423,2.448,2.4526,2.4571,2.4614,2.4646,2.4654,2.4701,2.477,2.4812,2.4894,2.4962,2.5025,2.505,2.5036,2.5035,2.5054,2.5057,2.5052,2.5058,2.4839,2.5031,2.5029,2.5028,2.5027,2.5027,2.4485,2.4537,2.4577,2.4638,2.467,2.4711,2.4763,2.4782,2.4839,2.4905,2.4904,2.498,2.5024,2.5106,2.5136,2.5198,2.5175,2.5203,2.521,2.5217,2.5225,2.504,2.5209,2.5209,2.5209,2.5208,2.5208,0,2.4649,2.4673,2.473,2.479,2.4839,2.4818,2.4865,2.4908,2.4975,2.5016,2.5069,2.515,2.5215,2.5244,2.5309,2.5353,2.5349,2.5371,2.5369,2.5375,2.524,2.5218,2.5374,2.5374,2.5374,2.5374,2.5374,2.5374,2.4741,2.4828,2.4835,2.494,2.4964,2.5037,2.5066,2.5105,2.5137,2.5228,2.5281,2.5299,2.5336,2.5404,2.5464,2.5471,2.5497,2.5523,2.5527,2.5401,2.5384,2.5369,2.5348,2.5528,2.5528,2.5657,2.5658,2.5659]},{"header":{"parameterUnit":"m.s-1","parameterCategory":1,"la1":30.2991,"la2":30.254,"lo1":-89.0895,"lo2":-89.0444,"dy":0.0017,"dx":0.0017,"nx":28,"ny":28,"refTime":"2023-08-04T21:00:00:Z","depth":0,"parameterNumber":3,"parameterNumberName":"V-component_of_WINDS"},"data":[0,0,0,0,0,0,0,0,0,0,0,0,0,0,0,0,0,0,0,0,0,0,0,0,0,0,0,0,0,0,0,0,0,0,0,0,0,0,0,0,0,0,0,0,0,0,0,0,0,0,0,0,0,0,0,0,0,0,2.4013,2.4013,0,2.4065,2.4066,2.4066,2.408,2.408,2.408,2.408,2.413,2.4131,2.4133,0,0,0,0,0,0,0,0,0,0,0,0,0,2.392,2.3921,2.4013,2.4013,2.4014,2.4065,2.4066,2.4066,2.4081,2.408,2.408,2.4079,2.4129,2.4131,2.4133,0,0,0,0,0,0,0,0,0,0,0,0,0,2.3965,2.3922,2.4013,2.4027,2.4029,2.4065,2.4066,2.4066,2.4081,2.408,2.408,2.4079,2.4128,2.4131,2.4133,2.4157,0,0,2.414,2.4141,0,0,0,0,0,0,0,0,2.3962,2.3968,2.4025,2.4026,2.4029,2.4066,2.4051,2.4097,2.4081,2.4061,2.408,2.4079,2.4108,2.4112,2.4123,2.4159,2.4161,2.4141,2.4142,2.4143,2.4144,0,0,0,0,0,0,0,2.3959,2.3966,2.4033,2.4025,2.4028,2.4029,2.4035,2.406,2.4086,2.4063,2.4064,2.407,2.4109,2.4121,2.4124,2.4162,2.4141,2.4143,2.4144,2.4145,2.4215,2.4216,0,0,0,0,0,0,2.3954,2.3963,2.4032,2.4035,2.3994,2.4031,2.4038,2.4054,2.4086,2.4091,2.407,2.407,2.4117,2.4122,2.4126,2.4154,2.4143,2.4145,2.4147,2.4215,2.4216,2.4216,0,0,0,0,0,0,2.3952,2.396,2.403,2.3999,2.4008,2.4034,2.4052,2.4055,2.4067,2.4092,2.4096,2.4077,2.4117,2.4123,2.4148,2.4156,2.4146,2.4149,2.4215,2.4215,2.4216,2.421,0,0,0,0,0,0,2.3949,2.3959,2.397,2.4,2.401,2.4053,2.4052,2.4057,2.4071,2.4072,2.41,2.4104,2.4117,2.4145,2.4151,2.4159,2.415,2.4214,2.4215,2.4216,2.421,2.4211,2.4211,0,0,0,0,0,2.3946,2.3966,2.3971,2.3979,2.4024,2.4053,2.4059,2.4074,2.4072,2.4082,2.4097,2.4103,2.4154,2.4147,2.4154,2.4163,2.4214,2.4215,2.4216,2.4209,2.421,2.4211,0,0,0,0,0,0,2.3937,2.3971,2.3976,2.4007,2.4027,2.4056,2.4069,2.4075,2.4096,2.4096,2.4113,2.4119,2.4142,2.4155,2.4147,2.4185,2.4184,2.4186,2.4177,2.4178,2.4178,2.4174,2.4152,0,0,0,0,0,2.3938,2.396,2.3988,2.4013,2.4023,2.4044,2.4057,2.4067,2.4088,2.4096,2.4114,2.4133,2.4153,2.4166,2.4186,2.4211,2.4216,2.422,2.4221,2.4222,2.4223,2.4235,2.4236,2.4219,2.4219,2.4219,0,0,2.3942,2.3963,2.3976,2.4011,2.4028,2.4049,2.4051,2.4073,2.4088,2.41,2.4125,2.4138,2.416,2.4185,2.4196,2.4196,2.4229,2.4223,2.4223,2.4225,2.4236,2.4238,2.4239,2.422,2.422,2.422,0,0,2.3959,2.3978,2.3999,2.4015,2.4041,2.4054,2.4059,2.4086,2.4096,2.4121,2.4129,2.4146,2.4181,2.4195,2.4207,2.4226,2.4231,2.4232,2.4235,2.4246,2.4247,2.4249,2.4254,2.4255,2.4233,2.4233,2.4233,0,2.396,2.3992,2.4009,2.403,2.4044,2.4055,2.4075,2.409,2.412,2.4129,2.4128,2.417,2.4186,2.4213,2.4217,2.4227,2.4231,2.4229,2.4246,2.4248,2.4249,2.4254,2.4256,2.4233,2.4233,2.4233,2.4233,0,2.3991,2.4013,2.4027,2.4056,2.4071,2.4092,2.4109,2.4122,2.413,2.4143,2.4166,2.4185,2.4208,2.4215,2.4223,2.4243,2.4241,2.4243,2.4242,2.425,2.4255,2.4257,2.4233,2.4233,2.4233,2.4233,0,0,2.4005,2.4041,2.4046,2.4058,2.4085,2.4102,2.4121,2.4144,2.4154,2.4173,2.4189,2.4216,2.4217,2.4231,2.424,2.425,2.426,2.425,2.4251,2.425,2.428,2.4278,2.428,2.4263,2.4264,2.4264,2.4278,0,2.4024,2.4061,2.4075,2.4104,2.4123,2.4133,2.4149,2.4166,2.4178,2.4194,2.4206,2.4225,2.4226,2.4234,2.4244,2.4257,2.4266,2.4256,2.4276,2.4277,2.427,2.4283,2.4282,2.4294,2.428,2.428,2.428,0,2.4052,2.4071,2.4103,2.4125,2.4134,2.4149,2.4169,2.4185,2.4203,2.4211,2.4225,2.4232,2.4251,2.4247,2.4271,2.4264,2.4272,2.428,2.428,2.4283,2.4279,2.4284,2.4298,2.4299,2.4284,2.4283,2.4283,0,2.4056,2.4091,2.4113,2.4123,2.4151,2.416,2.4172,2.419,2.4202,2.4219,2.4226,2.4245,2.4255,2.4269,2.428,2.4277,2.4302,2.4301,2.4307,2.4307,2.4312,2.4312,2.4327,2.4319,2.4319,2.4319,2.4319,0,2.4076,2.4094,2.4115,2.4129,2.4149,2.4163,2.4182,2.4194,2.4209,2.4224,2.4233,2.4246,2.4261,2.4275,2.4284,2.4301,2.4306,2.4311,2.4313,2.431,2.4309,2.4316,2.4315,2.4319,2.4319,2.4319,2.4319,0,2.4085,2.41,2.4125,2.4148,2.4154,2.4167,2.4186,2.4199,2.421,2.4228,2.4233,2.425,2.4267,2.428,2.4302,2.4308,2.4326,2.4328,2.432,2.4321,2.4326,2.4325,2.4346,2.4348,2.4339,2.4339,2.4339,0,2.4096,2.411,2.4134,2.4145,2.4157,2.4174,2.4186,2.4199,2.4211,2.4231,2.4241,2.4259,2.4274,2.43,2.4313,2.4329,2.4332,2.4338,2.4334,2.433,2.4331,2.4329,2.433,2.4338,2.4338,2.4338,2.4338,0,2.4113,2.4119,2.4137,2.4156,2.417,2.4186,2.4201,2.4209,2.4225,2.4237,2.4255,2.4267,2.4289,2.4305,2.4323,2.4332,2.4337,2.4339,2.4341,2.4338,2.4332,2.4334,2.432,2.4339,2.4339,2.4339,2.4339,2.4339,2.4123,2.4135,2.4153,2.4171,2.4184,2.4198,2.421,2.4223,2.4238,2.4258,2.4264,2.4282,2.4297,2.4321,2.4331,2.4343,2.4343,2.4347,2.4348,2.4348,2.4347,2.433,2.4347,2.4347,2.4347,2.4347,2.4347,0,2.4139,2.4151,2.4167,2.4189,2.4202,2.4206,2.4223,2.4234,2.425,2.4264,2.4278,2.4297,2.4313,2.4327,2.4343,2.435,2.4353,2.4354,2.4353,2.4355,2.4347,2.4343,2.4351,2.4351,2.4351,2.4351,2.4351,2.4351,2.4149,2.4169,2.4177,2.4202,2.4214,2.4232,2.4241,2.4253,2.4264,2.4285,2.4299,2.4308,2.4321,2.4338,2.4351,2.4355,2.436,2.436,2.4364,2.4356,2.4356,2.4355,2.4351,2.4361,2.4361,2.4371,2.4371,2.4371]}]]